MIDORI II (ADEOS-II)

Last updated on Wed Jul 02 2025 00:02:14 GMT+0000 (Coordinated Universal Time)

1 27597U 02056A 25182.46563499 .00000225 00000+0 10666-3 0 9997 2 27597 98.7384 134.8249 0001782 50.6383 309.4956 14.29060146174411
UTC large
Height (km)
Speed (km/s)
/
Latitude / Longitude
Inclination (degrees)
Orbital Period (minutes)
Azimuth
Elevation
Range (km)
Doppler Factor

Next 0 passes for location: London (51.5072 / 0.1276)

Sorry there are no passes over London.